TimeCDT,TemperatureF,Dew PointF,Humidity,Sea Level PressureIn,VisibilityMPH,Wind Direction,Wind SpeedMPH,Gust SpeedMPH,PrecipitationIn,Events,Conditions,WindDirDegrees,DateUTC
12:53 AM,54.0,48.9,83,30.09,10.0,ENE,4.6,-,N/A,,Clear,70,2013-06-13 05:53:00
1:53 AM,53.1,48.0,83,30.08,10.0,NE,8.1,-,N/A,,Clear,50,2013-06-13 06:53:00
2:53 AM,53.1,48.9,86,30.09,10.0,ENE,8.1,-,N/A,,Clear,60,2013-06-13 07:53:00
3:53 AM,50.0,46.9,89,30.10,10.0,East,4.6,-,N/A,,Clear,100,2013-06-13 08:53:00
4:53 AM,50.0,46.9,89,30.09,10.0,Calm,Calm,-,N/A,,Clear,0,2013-06-13 09:53:00
5:53 AM,48.0,45.0,89,30.12,10.0,Calm,Calm,-,N/A,,Clear,0,2013-06-13 10:53:00
6:53 AM,50.0,46.9,89,30.14,10.0,Calm,Calm,-,N/A,,Clear,0,2013-06-13 11:53:00
7:53 AM,54.0,50.0,86,30.12,10.0,Calm,Calm,-,N/A,,Clear,0,2013-06-13 12:53:00
8:53 AM,57.9,51.1,78,30.12,10.0,ESE,4.6,-,N/A,,Clear,120,2013-06-13 13:53:00
9:53 AM,62.1,52.0,70,30.16,10.0,ESE,4.6,-,N/A,,Clear,110,2013-06-13 14:53:00
10:25 AM,64.4,51.8,64,30.18,0.2,ESE,5.8,-,N/A,,Haze,110,2013-06-13 15:25:00
10:42 AM,64.4,53.6,68,30.17,-9999.0,SE,6.9,-,N/A,,Clear,140,2013-06-13 15:42:00
10:53 AM,66.0,52.0,60,30.13,-9999.0,East,9.2,-,N/A,,Clear,90,2013-06-13 15:53:00
11:53 AM,71.1,52.0,51,30.11,10.0,SE,6.9,-,N/A,,Clear,140,2013-06-13 16:53:00
12:53 PM,75.0,51.1,43,30.07,10.0,SSE,8.1,16.1,N/A,,Clear,150,2013-06-13 17:53:00
1:53 PM,78.1,50.0,37,30.03,10.0,SE,12.7,20.7,N/A,,Clear,140,2013-06-13 18:53:00
2:53 PM,78.1,51.1,39,30.01,10.0,SSE,11.5,19.6,N/A,,Clear,160,2013-06-13 19:53:00
3:53 PM,78.1,52.0,40,29.99,10.0,ESE,13.8,18.4,N/A,,Clear,120,2013-06-13 20:53:00
4:53 PM,80.1,54.0,40,29.96,10.0,ESE,10.4,-,N/A,,Clear,120,2013-06-13 21:53:00
5:53 PM,82.0,55.0,39,29.93,10.0,SE,11.5,-,N/A,,Clear,130,2013-06-13 22:53:00
6:53 PM,82.0,55.9,41,29.89,10.0,ESE,11.5,-,N/A,,Clear,120,2013-06-13 23:53:00
7:53 PM,80.1,55.9,43,29.87,10.0,ESE,9.2,-,N/A,,Clear,110,2013-06-14 00:53:00
8:53 PM,75.9,55.9,50,29.91,10.0,SE,6.9,-,N/A,,Clear,130,2013-06-14 01:53:00
9:53 PM,75.0,55.9,51,29.97,10.0,SSW,8.1,-,N/A,,Scattered Clouds,200,2013-06-14 02:53:00
10:16 PM,75.2,57.2,53,30.05,10.0,SW,6.9,-,0.00,Rain,Light Rain,230,2013-06-14 03:16:00
10:27 PM,73.4,57.2,57,30.06,10.0,SW,8.1,-,0.00,Rain-Thunderstorm,Light Rain,230,2013-06-14 03:27:00
10:42 PM,71.6,60.8,69,30.07,10.0,Calm,Calm,-,0.00,Rain,Light Rain,0,2013-06-14 03:42:00
10:53 PM,72.0,61.0,68,30.00,10.0,Variable,3.5,-,0.00,Rain,Light Rain,0,2013-06-14 03:53:00
11:53 PM,68.0,60.1,76,29.91,10.0,WNW,8.1,-,0.00,Rain,Light Rain,300,2013-06-14 04:53:00